Weather History for KPIR - October, 2012

Change the Weather History Date:

Saturday, October 13, 2012

  Actual Average Record
Temperature  
Mean Temperature 57 °F 50 °F  
Max Temperature 75 °F 63 °F 90 °F (1962)
Min Temperature 38 °F 38 °F 18 °F (1979)
Degree Days  
Heating Degree Days 8 15  
Month to date heating degree days 233 164  
Since 1 July heating degree days 341 335  
Cooling Degree Days 0 0  
Month to date cooling degree days 0 2  
Year to date cooling degree days 1112 865  
Growing Degree Days 6 (Base 50)    
Moisture  
Dew Point 35 °F    
Average Humidity 53    
Maximum Humidity 85    
Minimum Humidity 20    
Precipitation  
Precipitation 0.00 in 0.06 in 0.60 in (1954)
Month to date precipitation T 0.81  
Year to date precipitation 10.11 17.86  
Snow  
Snow 0.00 in 0.00 in T in (2009)
Month to date snowfall 0.0 0.2  
Since 1 July snowfall 0.0 0.2  
Snow Depth 0.00 in    
Sea Level Pressure  
Sea Level Pressure 29.70 in    
Wind  
Wind Speed 8 mph (NNW)    
Max Wind Speed 21 mph    
Max Gust Speed 25 mph    
Visibility 10 miles    
Events      
T = Trace of Precipitation, MM = Missing Value Source: NWS Daily Summary

Daily Weather History Graph

Daily Weather History Graph

Search for Another Location

Airport or City:

Trip Planner

Search our weather history database for the weather conditions in past years. The results will help you decide how hot, cold, wet, or windy it might be!

Date:

Astronomy

Oct. 13, 2012 Rise Set
Actual Time 7:54 AM CDT 6:59 PM CDT
Civil Twilight 7:25 AM CDT 7:28 PM CDT
Nautical Twilight 6:51 AM CDT 8:02 PM CDT
Astronomical Twilight 6:17 AM CDT 8:35 PM CDT
Moon 5:42 AM CDT (10/13) 5:46 PM CDT (10/13)
Length of Visible Light 12h 03m
Length of Day
11h 05m
Waning Crescent, 5% of the Moon is Illuminated
Oct 13
Waning Crescent
Oct 15
New
Oct 21
First Quarter
Oct 29
Full
Nov 6
Last Quarter

Hourly Weather History & Observations

Time (CDT) Temp. Windchill Dew Point Humidity Pressure Visibility Wind Dir Wind Speed Gust Speed Precip Events Conditions
12:53 AM 45.0 °F 40.1 °F 35.1 °F 68% 29.73 in 10.0 mi SSE 9.2 mph - N/A   Clear
1:53 AM 44.1 °F 39.0 °F 35.1 °F 71% 29.70 in 10.0 mi SSE 9.2 mph - N/A   Clear
2:53 AM 41.0 °F 38.0 °F 34.0 °F 76% 29.67 in 10.0 mi SE 4.6 mph - N/A   Clear
3:53 AM 39.9 °F 36.7 °F 34.0 °F 79% 29.66 in 10.0 mi SE 4.6 mph - N/A   Clear
4:53 AM 39.9 °F - 35.1 °F 83% 29.65 in 10.0 mi Calm Calm - N/A   Clear
5:53 AM 42.1 °F 40.2 °F 35.1 °F 76% 29.66 in 10.0 mi NE 3.5 mph - N/A   Clear
6:53 AM 42.1 °F 38.4 °F 35.1 °F 76% 29.65 in 10.0 mi SE 5.8 mph - N/A   Clear
7:53 AM 41.0 °F - 35.1 °F 79% 29.68 in 10.0 mi Calm Calm - N/A   Clear
8:53 AM 42.1 °F - 36.0 °F 79% 29.68 in 10.0 mi Calm Calm - N/A   Clear
9:53 AM 46.0 °F 43.1 °F 37.0 °F 71% 29.70 in 10.0 mi NW 5.8 mph - N/A   Clear
10:53 AM 50.0 °F - 39.0 °F 66% 29.70 in 10.0 mi NW 8.1 mph - N/A   Clear
11:53 AM 53.1 °F - 39.9 °F 61% 29.70 in 10.0 mi WNW 8.1 mph - N/A   Clear
12:53 PM 61.0 °F - 39.9 °F 46% 29.70 in 10.0 mi West 6.9 mph - N/A   Clear
1:53 PM 68.0 °F - 39.9 °F 36% 29.68 in 10.0 mi WNW 9.2 mph - N/A   Clear
2:53 PM 72.0 °F - 37.0 °F 28% 29.67 in 10.0 mi NW 11.5 mph 21.9 mph N/A   Clear
3:53 PM 73.9 °F - 30.0 °F 20% 29.68 in 10.0 mi North 17.3 mph - N/A   Unknown
4:53 PM 73.9 °F - 32.0 °F 21% 29.70 in 10.0 mi NNW 18.4 mph 25.3 mph N/A   Clear
5:53 PM 72.0 °F - 30.0 °F 21% 29.72 in 10.0 mi North 12.7 mph - N/A   Clear
7:53 PM 62.1 °F - 30.9 °F 31% 29.78 in 10.0 mi North 9.2 mph - N/A   Clear
9:53 PM 54.0 °F - 32.0 °F 43% 29.84 in 10.0 mi North 11.5 mph - N/A   Clear